Time,TemperatureF,DewpointF,PressureIn,WindDirection,WindDirectionDegrees,WindSpeedMPH,WindSpeedGustMPH,Humidity,HourlyPrecipIn,Conditions,Clouds,dailyrainin,SoftwareType,DateUTC
2013-10-30 00:01:00,56.2,51.4,30.21,NNE,32,0.0,0.0,84,0.00,,---,0.00,VWS V14.01,2013-10-30 04:01:00,
2013-10-30 00:03:00,56.2,51.4,30.21,NNE,32,0.0,0.0,84,0.00,,---,0.00,VWS V14.01,2013-10-30 04:03:00,
2013-10-30 00:09:00,56.2,51.4,30.21,NNE,32,0.0,0.0,84,0.00,,---,0.00,VWS V14.01,2013-10-30 04:09:00,
2013-10-30 00:11:00,56.0,51.6,30.21,NNE,32,0.0,0.0,85,0.00,,---,0.00,VWS V14.01,2013-10-30 04:11:00,
2013-10-30 00:17:00,55.9,51.5,30.22,NNE,32,0.0,0.0,85,0.00,,---,0.00,VWS V14.01,2013-10-30 04:17:00,
2013-10-30 00:21:00,55.7,51.3,30.22,NNE,32,0.0,0.0,85,0.00,,---,0.00,VWS V14.01,2013-10-30 04:21:00,
2013-10-30 00:27:00,55.6,51.5,30.22,NNE,32,0.0,0.0,86,0.00,,---,0.00,VWS V14.01,2013-10-30 04:27:00,
2013-10-30 00:31:00,55.4,51.3,30.21,NNE,32,0.0,0.0,86,0.00,,---,0.00,VWS V14.01,2013-10-30 04:31:00,
2013-10-30 00:37:00,55.4,51.3,30.21,NNE,32,0.0,0.0,86,0.00,,---,0.00,VWS V14.01,2013-10-30 04:37:00,
2013-10-30 00:43:00,55.4,51.3,30.21,NNE,32,0.0,0.0,86,0.00,,---,0.00,VWS V14.01,2013-10-30 04:43:00,
2013-10-30 00:49:00,55.4,51.3,30.21,NNE,32,0.0,0.0,86,0.00,,---,0.00,VWS V14.01,2013-10-30 04:49:00,
2013-10-30 00:55:00,55.3,51.5,30.21,NNE,32,0.0,0.0,87,0.00,,---,0.00,VWS V14.01,2013-10-30 04:55:00,
2013-10-30 01:01:00,55.3,51.5,30.21,NNE,32,0.0,0.0,87,0.00,,---,0.00,VWS V14.01,2013-10-30 05:01:00,
2013-10-30 01:07:00,55.1,51.3,30.21,NNE,32,0.0,0.0,87,0.00,,---,0.00,VWS V14.01,2013-10-30 05:07:00,
2013-10-30 01:13:00,55.1,51.3,30.21,NNE,32,0.0,0.0,87,0.00,,---,0.00,VWS V14.01,2013-10-30 05:13:00,
2013-10-30 01:19:00,55.1,51.3,30.21,NNE,32,0.0,0.0,87,0.00,,---,0.00,VWS V14.01,2013-10-30 05:19:00,
2013-10-30 01:25:00,55.1,51.3,30.21,NNE,32,0.0,0.0,87,0.00,,---,0.00,VWS V14.01,2013-10-30 05:25:00,
2013-10-30 01:31:00,55.1,51.3,30.21,NNE,32,0.0,0.0,87,0.00,,---,0.00,VWS V14.01,2013-10-30 05:31:00,
2013-10-30 01:37:00,55.1,51.3,30.21,NNE,32,0.0,0.0,87,0.00,,---,0.00,VWS V14.01,2013-10-30 05:37:00,
2013-10-30 01:43:00,55.1,51.3,30.21,NNE,32,0.0,0.0,87,0.00,,---,0.00,VWS V14.01,2013-10-30 05:43:00,
2013-10-30 01:49:00,55.1,51.3,30.22,NNE,32,0.0,0.0,87,0.00,,---,0.00,VWS V14.01,2013-10-30 05:49:00,
2013-10-30 01:55:00,55.1,51.3,30.22,NNE,32,0.0,0.0,87,0.00,,---,0.00,VWS V14.01,2013-10-30 05:55:00,
2013-10-30 02:01:00,55.1,51.3,30.22,NNE,32,0.0,0.0,87,0.00,,---,0.00,VWS V14.01,2013-10-30 06:01:00,
2013-10-30 02:07:00,55.1,51.6,30.22,NNE,32,0.0,0.0,88,0.00,,---,0.00,VWS V14.01,2013-10-30 06:07:00,
2013-10-30 02:14:00,55.1,51.6,30.22,NNE,32,0.0,0.0,88,0.00,,---,0.00,VWS V14.01,2013-10-30 06:14:00,
2013-10-30 02:20:00,55.1,51.6,30.21,NNE,32,0.0,0.0,88,0.00,,---,0.00,VWS V14.01,2013-10-30 06:20:00,
2013-10-30 02:26:00,55.1,51.6,30.21,NNE,32,0.0,0.0,88,0.00,,---,0.00,VWS V14.01,2013-10-30 06:26:00,
2013-10-30 02:31:00,55.3,51.8,30.20,NNE,32,0.0,0.0,88,0.00,,---,0.00,VWS V14.01,2013-10-30 06:31:00,
2013-10-30 02:38:00,55.3,51.8,30.20,NNE,32,0.0,0.0,88,0.00,,---,0.00,VWS V14.01,2013-10-30 06:38:00,
2013-10-30 02:44:00,55.4,51.6,30.20,NNE,32,0.0,0.0,87,0.00,,---,0.00,VWS V14.01,2013-10-30 06:44:00,
2013-10-30 02:50:00,55.4,51.6,30.19,NNE,32,0.0,0.0,87,0.00,,---,0.00,VWS V14.01,2013-10-30 06:50:00,
2013-10-30 02:56:00,55.3,51.5,30.19,NNE,32,0.0,0.0,87,0.00,,---,0.00,VWS V14.01,2013-10-30 06:56:00,
2013-10-30 03:02:00,55.3,51.5,30.19,NNE,32,0.0,0.0,87,0.00,,---,0.00,VWS V14.01,2013-10-30 07:02:00,
2013-10-30 03:08:00,55.0,51.2,30.19,NNE,32,0.0,0.0,87,0.00,,---,0.00,VWS V14.01,2013-10-30 07:08:00,
2013-10-30 03:14:00,54.8,51.3,30.19,NNE,32,0.0,0.0,88,0.00,,---,0.00,VWS V14.01,2013-10-30 07:14:00,
2013-10-30 03:20:00,54.7,51.2,30.19,NNE,32,0.0,0.0,88,0.00,,---,0.00,VWS V14.01,2013-10-30 07:20:00,
2013-10-30 03:26:00,54.7,51.2,30.19,NNE,32,0.0,0.0,88,0.00,,---,0.00,VWS V14.01,2013-10-30 07:26:00,
2013-10-30 03:32:00,54.5,51.3,30.19,NNE,32,0.0,0.0,89,0.00,,---,0.00,VWS V14.01,2013-10-30 07:32:00,
2013-10-30 03:38:00,54.5,51.3,30.19,NNE,32,0.0,0.0,89,0.00,,---,0.00,VWS V14.01,2013-10-30 07:38:00,
2013-10-30 03:44:00,54.4,51.2,30.19,NNE,32,0.0,0.0,89,0.00,,---,0.00,VWS V14.01,2013-10-30 07:44:00,
2013-10-30 03:50:00,54.2,51.3,30.19,NNE,32,0.0,0.0,90,0.00,,---,0.00,VWS V14.01,2013-10-30 07:50:00,
2013-10-30 03:56:00,54.1,51.2,30.19,NNE,32,0.0,0.0,90,0.00,,---,0.00,VWS V14.01,2013-10-30 07:56:00,
2013-10-30 04:02:00,53.9,51.3,30.19,NNE,32,0.0,0.0,91,0.00,,---,0.00,VWS V14.01,2013-10-30 08:02:00,
2013-10-30 04:08:00,53.6,51.0,30.19,NNE,32,0.0,0.0,91,0.00,,---,0.00,VWS V14.01,2013-10-30 08:08:00,
2013-10-30 04:14:00,53.5,51.2,30.19,NNE,32,0.0,0.0,92,0.00,,---,0.00,VWS V14.01,2013-10-30 08:14:00,
2013-10-30 04:20:00,53.3,51.0,30.19,NNE,32,0.0,0.0,92,0.00,,---,0.00,VWS V14.01,2013-10-30 08:20:00,
2013-10-30 04:26:00,53.3,51.3,30.19,NNE,32,0.0,0.0,93,0.00,,---,0.00,VWS V14.01,2013-10-30 08:26:00,
2013-10-30 04:32:00,53.3,51.3,30.18,NNE,32,0.0,0.0,93,0.00,,---,0.00,VWS V14.01,2013-10-30 08:32:00,
2013-10-30 04:38:00,53.5,51.5,30.18,NNE,32,0.0,0.0,93,0.00,,---,0.00,VWS V14.01,2013-10-30 08:38:00,
2013-10-30 04:44:00,53.6,51.6,30.18,NNE,32,0.0,0.0,93,0.00,,---,0.00,VWS V14.01,2013-10-30 08:44:00,
2013-10-30 04:50:00,53.6,51.6,30.17,NNE,32,0.0,0.0,93,0.00,,---,0.00,VWS V14.01,2013-10-30 08:50:00,
2013-10-30 04:56:00,53.8,51.8,30.17,NNE,32,0.0,0.0,93,0.00,,---,0.00,VWS V14.01,2013-10-30 08:56:00,
2013-10-30 05:02:00,53.8,51.8,30.17,NNE,32,0.0,0.0,93,0.00,,---,0.00,VWS V14.01,2013-10-30 09:02:00,
2013-10-30 05:08:00,53.8,51.5,30.17,NNE,32,0.0,0.0,92,0.00,,---,0.00,VWS V14.01,2013-10-30 09:08:00,
2013-10-30 05:14:00,53.6,51.3,30.17,NNE,32,0.0,0.0,92,0.00,,---,0.00,VWS V14.01,2013-10-30 09:14:00,
2013-10-30 05:20:00,53.5,51.2,30.17,NNE,32,0.0,0.0,92,0.00,,---,0.00,VWS V14.01,2013-10-30 09:20:00,
2013-10-30 05:26:00,53.3,51.0,30.17,NNE,32,0.0,0.0,92,0.00,,---,0.00,VWS V14.01,2013-10-30 09:26:00,
2013-10-30 05:32:00,53.2,50.9,30.18,NNE,32,0.0,0.0,92,0.00,,---,0.00,VWS V14.01,2013-10-30 09:32:00,
2013-10-30 05:38:00,53.2,50.9,30.18,NNE,32,0.0,0.0,92,0.00,,---,0.00,VWS V14.01,2013-10-30 09:38:00,
2013-10-30 05:44:00,53.2,50.9,30.18,NNE,32,0.0,0.0,92,0.00,,---,0.00,VWS V14.01,2013-10-30 09:44:00,
2013-10-30 05:50:00,53.1,51.1,30.17,NNE,32,0.0,0.0,93,0.00,,---,0.00,VWS V14.01,2013-10-30 09:50:00,
2013-10-30 05:56:00,52.9,50.9,30.17,NNE,32,0.0,0.0,93,0.00,,---,0.00,VWS V14.01,2013-10-30 09:56:00,
2013-10-30 06:02:00,52.8,50.8,30.19,NNE,32,0.0,0.0,93,0.00,,---,0.00,VWS V14.01,2013-10-30 10:02:00,
2013-10-30 06:08:00,52.5,50.8,30.19,NNE,32,0.0,0.0,94,0.00,,---,0.00,VWS V14.01,2013-10-30 10:08:00,
2013-10-30 06:15:00,52.5,51.1,30.19,NNE,32,0.0,0.0,95,0.00,,---,0.00,VWS V14.01,2013-10-30 10:15:00,
2013-10-30 06:21:00,52.6,51.2,30.20,NNE,32,0.0,0.0,95,0.00,,---,0.00,VWS V14.01,2013-10-30 10:21:00,
2013-10-30 06:27:00,52.6,51.2,30.20,NNE,32,0.0,1.0,95,0.00,,---,0.00,VWS V14.01,2013-10-30 10:27:00,
2013-10-30 06:32:00,52.8,51.7,30.19,NNE,32,0.0,1.0,96,0.00,,---,0.00,VWS V14.01,2013-10-30 10:32:00,
2013-10-30 06:37:00,52.8,51.7,30.19,NNE,32,0.0,0.0,96,0.00,,---,0.00,VWS V14.01,2013-10-30 10:37:00,
2013-10-30 06:43:00,52.9,51.8,30.19,NNE,32,0.0,0.0,96,0.00,,---,0.00,VWS V14.01,2013-10-30 10:43:00,
2013-10-30 06:49:00,52.9,51.8,30.19,NNE,32,0.0,0.0,96,0.00,,---,0.00,VWS V14.01,2013-10-30 10:49:00,
2013-10-30 06:55:00,52.9,51.8,30.19,NNE,32,0.0,0.0,96,0.00,,---,0.00,VWS V14.01,2013-10-30 10:55:00,
2013-10-30 07:01:00,52.9,51.8,30.19,NNE,32,0.0,0.0,96,0.00,,---,0.00,VWS V14.01,2013-10-30 11:01:00,
2013-10-30 07:07:00,52.9,51.8,30.19,NNE,32,0.0,0.0,96,0.00,,---,0.00,VWS V14.01,2013-10-30 11:07:00,
2013-10-30 07:13:00,52.9,51.8,30.19,NNE,32,0.0,0.0,96,0.00,,---,0.00,VWS V14.01,2013-10-30 11:13:00,
2013-10-30 07:19:00,52.9,51.8,30.20,NNE,32,0.0,0.0,96,0.00,,---,0.00,VWS V14.01,2013-10-30 11:19:00,
2013-10-30 07:25:00,52.9,51.8,30.20,NNE,32,0.0,0.0,96,0.00,,---,0.00,VWS V14.01,2013-10-30 11:25:00,
2013-10-30 07:31:00,52.9,51.8,30.19,NNE,32,0.0,0.0,96,0.00,,---,0.00,VWS V14.01,2013-10-30 11:31:00,
2013-10-30 07:37:00,52.9,51.8,30.19,NNE,32,0.0,0.0,96,0.00,,---,0.00,VWS V14.01,2013-10-30 11:37:00,
2013-10-30 07:43:00,52.9,51.8,30.19,NNE,32,0.0,0.0,96,0.00,,---,0.00,VWS V14.01,2013-10-30 11:43:00,
2013-10-30 07:49:00,52.9,51.8,30.19,NNE,32,0.0,0.0,96,0.00,,---,0.00,VWS V14.01,2013-10-30 11:49:00,
2013-10-30 07:55:00,52.9,51.8,30.19,NNE,32,0.0,0.0,96,0.00,,---,0.00,VWS V14.01,2013-10-30 11:55:00,
2013-10-30 08:01:00,52.9,51.8,30.19,NNE,32,0.0,0.0,96,0.00,,---,0.00,VWS V14.01,2013-10-30 12:01:00,
2013-10-30 08:07:00,52.9,51.8,30.19,NNE,32,0.0,0.0,96,0.00,,---,0.00,VWS V14.01,2013-10-30 12:07:00,
2013-10-30 08:13:00,52.9,51.8,30.19,NNE,32,0.0,0.0,96,0.00,,---,0.00,VWS V14.01,2013-10-30 12:13:00,
2013-10-30 08:19:00,53.1,52.0,30.20,NNE,32,0.0,0.0,96,0.00,,---,0.00,VWS V14.01,2013-10-30 12:19:00,
2013-10-30 08:25:00,53.1,52.0,30.20,NNE,32,0.0,0.0,96,0.00,,---,0.00,VWS V14.01,2013-10-30 12:25:00,
2013-10-30 08:31:00,53.2,52.1,30.20,NNE,32,0.0,0.0,96,0.00,,---,0.00,VWS V14.01,2013-10-30 12:31:00,
2013-10-30 08:37:00,53.2,52.1,30.20,NNE,32,0.0,0.0,96,0.00,,---,0.00,VWS V14.01,2013-10-30 12:37:00,
2013-10-30 08:43:00,53.3,52.2,30.20,NNE,32,0.0,0.0,96,0.00,,---,0.00,VWS V14.01,2013-10-30 12:43:00,
2013-10-30 08:49:00,53.3,52.2,30.21,NNE,32,0.0,0.0,96,0.00,,---,0.00,VWS V14.01,2013-10-30 12:49:00,
2013-10-30 08:55:00,53.5,52.4,30.21,NNE,32,0.0,0.0,96,0.00,,---,0.00,VWS V14.01,2013-10-30 12:55:00,
2013-10-30 09:01:00,53.6,52.8,30.21,NNE,32,0.0,0.0,97,0.00,,---,0.00,VWS V14.01,2013-10-30 13:01:00,
2013-10-30 09:07:00,53.9,53.1,30.21,NNE,32,0.0,0.0,97,0.00,,---,0.00,VWS V14.01,2013-10-30 13:07:00,
2013-10-30 09:13:00,54.1,53.3,30.21,NNE,32,0.0,0.0,97,0.00,,---,0.00,VWS V14.01,2013-10-30 13:13:00,
2013-10-30 09:19:00,54.1,53.3,30.22,NNE,32,0.0,0.0,97,0.00,,---,0.00,VWS V14.01,2013-10-30 13:19:00,
2013-10-30 09:25:00,54.1,53.3,30.22,NNE,32,0.0,0.0,97,0.00,,---,0.00,VWS V14.01,2013-10-30 13:25:00,
2013-10-30 09:31:00,54.1,53.3,30.22,NNE,32,0.0,0.0,97,0.00,,---,0.00,VWS V14.01,2013-10-30 13:31:00,
2013-10-30 09:37:00,54.4,53.8,30.22,NNE,32,0.0,0.0,98,0.00,,---,0.00,VWS V14.01,2013-10-30 13:37:00,
2013-10-30 09:43:00,54.7,54.2,30.22,NNE,32,0.0,0.0,98,0.00,,---,0.00,VWS V14.01,2013-10-30 13:43:00,
2013-10-30 09:49:00,55.0,54.5,30.22,NNE,32,0.0,0.0,98,0.00,,---,0.00,VWS V14.01,2013-10-30 13:49:00,
2013-10-30 09:55:00,55.3,54.8,30.22,NNE,32,0.0,0.0,98,0.00,,---,0.00,VWS V14.01,2013-10-30 13:55:00,
2013-10-30 10:01:00,55.4,54.8,30.21,NNE,32,0.0,0.0,98,0.00,,---,0.00,VWS V14.01,2013-10-30 14:01:00,
2013-10-30 10:07:00,55.6,55.0,30.21,NNE,32,0.0,0.0,98,0.00,,---,0.00,VWS V14.01,2013-10-30 14:07:00,
2013-10-30 10:13:00,55.6,55.0,30.21,NNE,32,0.0,0.0,98,0.01,,---,0.01,VWS V14.01,2013-10-30 14:13:00,
2013-10-30 10:19:00,55.6,55.0,30.21,NNE,32,0.0,0.0,98,0.01,,---,0.01,VWS V14.01,2013-10-30 14:19:00,
2013-10-30 10:25:00,55.6,54.8,30.21,NNE,32,0.0,0.0,97,0.01,,---,0.01,VWS V14.01,2013-10-30 14:25:00,
2013-10-30 10:31:00,55.6,55.0,30.21,NNE,32,0.0,0.0,98,0.01,,---,0.01,VWS V14.01,2013-10-30 14:31:00,
2013-10-30 10:37:00,55.7,55.2,30.21,NNE,32,0.0,0.0,98,0.01,,---,0.01,VWS V14.01,2013-10-30 14:37:00,
2013-10-30 10:44:00,55.9,55.3,30.21,NNE,32,0.0,0.0,98,0.01,,---,0.01,VWS V14.01,2013-10-30 14:44:00,
2013-10-30 10:50:00,56.0,55.5,30.21,NNE,32,0.0,0.0,98,0.01,,---,0.01,VWS V14.01,2013-10-30 14:50:00,
2013-10-30 10:56:00,56.2,55.7,30.21,NNE,32,0.0,0.0,98,0.01,,---,0.01,VWS V14.01,2013-10-30 14:56:00,
2013-10-30 11:02:00,56.5,55.9,30.21,NNE,32,0.0,0.0,98,0.01,,---,0.01,VWS V14.01,2013-10-30 15:02:00,
2013-10-30 11:08:00,56.6,56.0,30.21,NNE,32,0.0,1.0,98,0.01,,---,0.01,VWS V14.01,2013-10-30 15:08:00,
2013-10-30 11:14:00,56.9,56.3,30.21,NNE,32,0.0,1.0,98,0.01,,---,0.01,VWS V14.01,2013-10-30 15:14:00,
2013-10-30 11:20:00,57.2,56.6,30.20,NNE,32,0.0,0.0,98,0.00,,---,0.01,VWS V14.01,2013-10-30 15:20:00,
2013-10-30 11:26:00,57.5,56.7,30.20,NE,49,0.0,2.0,97,0.00,,---,0.01,VWS V14.01,2013-10-30 15:26:00,
2013-10-30 11:32:00,57.8,57.0,30.19,NE,49,0.0,2.0,97,0.00,,---,0.01,VWS V14.01,2013-10-30 15:32:00,
2013-10-30 11:38:00,58.1,57.0,30.19,NE,49,0.0,0.0,96,0.00,,---,0.01,VWS V14.01,2013-10-30 15:38:00,
2013-10-30 11:44:00,58.3,56.9,30.19,East,96,0.0,2.0,95,0.00,,---,0.01,VWS V14.01,2013-10-30 15:44:00,
2013-10-30 11:50:00,58.6,56.6,30.19,East,96,0.0,0.0,93,0.00,,---,0.01,VWS V14.01,2013-10-30 15:50:00,
2013-10-30 11:56:00,58.7,56.7,30.19,East,96,0.0,0.0,93,0.00,,---,0.01,VWS V14.01,2013-10-30 15:56:00,
2013-10-30 12:02:00,59.0,56.4,30.19,East,96,0.0,0.0,91,0.00,,---,0.01,VWS V14.01,2013-10-30 16:02:00,
2013-10-30 12:08:00,59.5,56.9,30.19,East,97,0.0,1.0,91,0.00,,---,0.01,VWS V14.01,2013-10-30 16:08:00,
2013-10-30 12:14:00,59.9,57.0,30.19,SE,146,1.0,2.0,90,0.00,,---,0.01,VWS V14.01,2013-10-30 16:14:00,
2013-10-30 12:20:00,60.4,56.8,30.18,SSE,164,0.0,0.0,88,0.00,,---,0.01,VWS V14.01,2013-10-30 16:20:00,
2013-10-30 12:26:00,60.9,57.0,30.18,SSE,164,1.0,2.0,87,0.00,,---,0.01,VWS V14.01,2013-10-30 16:26:00,
2013-10-30 12:32:00,61.3,56.4,30.17,SE,136,0.0,3.0,84,0.00,,---,0.01,VWS V14.01,2013-10-30 16:32:00,
2013-10-30 12:38:00,61.6,56.7,30.17,SE,136,0.0,1.0,84,0.00,,---,0.01,VWS V14.01,2013-10-30 16:38:00,
2013-10-30 12:44:00,62.4,56.2,30.17,SE,137,0.0,1.0,80,0.00,,---,0.01,VWS V14.01,2013-10-30 16:44:00,
2013-10-30 12:50:00,63.4,56.1,30.16,West,264,0.0,3.0,77,0.00,,---,0.01,VWS V14.01,2013-10-30 16:50:00,
2013-10-30 12:56:00,64.0,55.9,30.16,South,190,0.0,4.0,75,0.00,,---,0.01,VWS V14.01,2013-10-30 16:56:00,
2013-10-30 13:02:00,64.5,55.3,30.15,NW,304,0.0,5.0,72,0.00,,---,0.01,VWS V14.01,2013-10-30 17:02:00,
2013-10-30 13:08:00,64.8,55.2,30.15,SSE,162,0.0,6.0,71,0.00,,---,0.01,VWS V14.01,2013-10-30 17:08:00,
2013-10-30 13:14:00,65.3,55.7,30.15,SSE,162,0.0,6.0,71,0.00,,---,0.01,VWS V14.01,2013-10-30 17:14:00,
2013-10-30 13:20:00,66.1,55.2,30.14,SE,142,0.0,5.0,68,0.00,,---,0.01,VWS V14.01,2013-10-30 17:20:00,
2013-10-30 13:26:00,66.9,55.6,30.14,West,269,3.0,6.0,67,0.00,,---,0.01,VWS V14.01,2013-10-30 17:26:00,
2013-10-30 13:32:00,67.6,55.4,30.13,NW,319,2.0,6.0,65,0.00,,---,0.01,VWS V14.01,2013-10-30 17:32:00,
2013-10-30 13:38:00,67.9,54.8,30.13,SSW,208,4.0,5.0,63,0.00,,---,0.01,VWS V14.01,2013-10-30 17:38:00,
2013-10-30 13:44:00,67.9,55.3,30.13,North,0,0.0,5.0,64,0.00,,---,0.01,VWS V14.01,2013-10-30 17:44:00,
2013-10-30 13:50:00,68.3,55.2,30.12,WSW,247,0.0,6.0,63,0.00,,---,0.01,VWS V14.01,2013-10-30 17:50:00,
2013-10-30 13:56:00,68.4,54.9,30.12,SW,222,3.0,6.0,62,0.00,,---,0.01,VWS V14.01,2013-10-30 17:56:00,
2013-10-30 14:02:00,68.4,55.3,30.11,SSE,161,0.0,10.0,63,0.00,,---,0.01,VWS V14.01,2013-10-30 18:02:00,
2013-10-30 14:08:00,68.6,55.1,30.11,South,178,0.0,6.0,62,0.00,,---,0.01,VWS V14.01,2013-10-30 18:08:00,
2013-10-30 14:14:00,68.9,55.4,30.11,South,186,0.0,6.0,62,0.00,,---,0.01,VWS V14.01,2013-10-30 18:14:00,
2013-10-30 14:20:00,69.6,55.6,30.10,SW,228,0.0,3.0,61,0.00,,---,0.01,VWS V14.01,2013-10-30 18:20:00,
2013-10-30 14:26:00,69.9,55.4,30.10,SW,223,0.0,3.0,60,0.00,,---,0.01,VWS V14.01,2013-10-30 18:26:00,
2013-10-30 14:32:00,70.1,55.6,30.09,South,178,0.0,4.0,60,0.00,,---,0.01,VWS V14.01,2013-10-30 18:32:00,
2013-10-30 14:38:00,70.8,55.8,30.09,WNW,288,0.0,3.0,59,0.00,,---,0.01,VWS V14.01,2013-10-30 18:38:00,
2013-10-30 14:44:00,71.3,55.3,30.09,WSW,258,0.0,4.0,57,0.00,,---,0.01,VWS V14.01,2013-10-30 18:44:00,
2013-10-30 14:50:00,71.5,55.5,30.09,WSW,257,0.0,3.0,57,0.00,,---,0.01,VWS V14.01,2013-10-30 18:50:00,
2013-10-30 14:56:00,72.0,56.4,30.09,SSE,164,0.0,5.0,58,0.00,,---,0.01,VWS V14.01,2013-10-30 18:56:00,
2013-10-30 15:02:00,72.3,55.7,30.09,West,259,0.0,5.0,56,0.00,,---,0.01,VWS V14.01,2013-10-30 19:02:00,
2013-10-30 15:09:00,73.0,55.9,30.09,WSW,248,2.0,6.0,55,0.00,,---,0.01,VWS V14.01,2013-10-30 19:09:00,
2013-10-30 15:15:00,72.8,55.7,30.09,NW,326,3.0,6.0,55,0.00,,---,0.01,VWS V14.01,2013-10-30 19:15:00,
2013-10-30 15:21:00,72.7,55.6,30.08,NNW,338,0.0,3.0,55,0.00,,---,0.01,VWS V14.01,2013-10-30 19:21:00,
2013-10-30 15:27:00,72.7,56.1,30.08,WSW,245,5.0,5.0,56,0.00,,---,0.01,VWS V14.01,2013-10-30 19:27:00,
2013-10-30 15:32:00,72.5,55.9,30.08,South,183,0.0,5.0,56,0.00,,---,0.01,VWS V14.01,2013-10-30 19:32:00,
2013-10-30 15:37:00,72.3,55.2,30.08,WNW,290,0.0,4.0,55,0.00,,---,0.01,VWS V14.01,2013-10-30 19:37:00,
2013-10-30 15:43:00,72.3,55.7,30.08,WNW,295,0.0,4.0,56,0.00,,---,0.01,VWS V14.01,2013-10-30 19:43:00,
2013-10-30 15:49:00,72.3,55.7,30.07,NNW,332,0.0,0.0,56,0.00,,---,0.01,VWS V14.01,2013-10-30 19:49:00,
2013-10-30 15:55:00,72.3,55.7,30.07,WSW,250,0.0,1.0,56,0.00,,---,0.01,VWS V14.01,2013-10-30 19:55:00,
2013-10-30 16:01:00,72.5,55.9,30.07,SW,221,0.0,1.0,56,0.00,,---,0.01,VWS V14.01,2013-10-30 20:01:00,
2013-10-30 16:07:00,72.7,56.1,30.07,NW,311,0.0,4.0,56,0.00,,---,0.01,VWS V14.01,2013-10-30 20:07:00,
2013-10-30 16:13:00,73.0,56.9,30.07,NW,311,1.0,4.0,57,0.00,,---,0.01,VWS V14.01,2013-10-30 20:13:00,
2013-10-30 16:19:00,73.2,56.1,30.07,North,352,0.0,4.0,55,0.00,,---,0.01,VWS V14.01,2013-10-30 20:19:00,
2013-10-30 16:25:00,73.5,56.4,30.07,NW,319,2.0,4.0,55,0.00,,---,0.01,VWS V14.01,2013-10-30 20:25:00,
2013-10-30 16:31:00,73.7,56.5,30.07,WSW,243,2.0,4.0,55,0.00,,---,0.01,VWS V14.01,2013-10-30 20:31:00,
2013-10-30 16:37:00,73.9,55.7,30.07,WNW,290,0.0,5.0,53,0.00,,---,0.01,VWS V14.01,2013-10-30 20:37:00,
2013-10-30 16:43:00,73.9,56.2,30.07,NW,324,0.0,5.0,54,0.00,,---,0.01,VWS V14.01,2013-10-30 20:43:00,
2013-10-30 16:49:00,73.7,56.5,30.07,NNW,348,2.0,2.0,55,0.00,,---,0.01,VWS V14.01,2013-10-30 20:49:00,
2013-10-30 16:55:00,73.9,56.2,30.07,NNW,334,0.0,2.0,54,0.00,,---,0.01,VWS V14.01,2013-10-30 20:55:00,
2013-10-30 17:01:00,73.9,56.2,30.07,NNW,334,0.0,2.0,54,0.00,,---,0.01,VWS V14.01,2013-10-30 21:01:00,
2013-10-30 17:07:00,73.9,56.2,30.07,SW,228,0.0,4.0,54,0.00,,---,0.01,VWS V14.01,2013-10-30 21:07:00,
2013-10-30 17:13:00,73.7,56.0,30.07,SW,236,0.0,4.0,54,0.00,,---,0.01,VWS V14.01,2013-10-30 21:13:00,
2013-10-30 17:19:00,73.5,55.9,30.08,SW,236,0.0,0.0,54,0.00,,---,0.01,VWS V14.01,2013-10-30 21:19:00,
2013-10-30 17:25:00,73.3,55.7,30.08,SW,236,0.0,1.0,54,0.00,,---,0.01,VWS V14.01,2013-10-30 21:25:00,
2013-10-30 17:31:00,73.2,55.6,30.08,SW,236,0.0,3.0,54,0.00,,---,0.01,VWS V14.01,2013-10-30 21:31:00,
2013-10-30 17:37:00,73.0,55.9,30.08,SW,236,0.0,0.0,55,0.00,,---,0.01,VWS V14.01,2013-10-30 21:37:00,
2013-10-30 17:43:00,72.7,56.1,30.08,SW,236,0.0,0.0,56,0.00,,---,0.01,VWS V14.01,2013-10-30 21:43:00,
2013-10-30 17:49:00,72.3,55.7,30.09,SW,236,0.0,0.0,56,0.00,,---,0.01,VWS V14.01,2013-10-30 21:49:00,
2013-10-30 17:55:00,72.0,56.0,30.09,SW,236,0.0,0.0,57,0.00,,---,0.01,VWS V14.01,2013-10-30 21:55:00,
2013-10-30 18:01:00,71.8,56.2,30.09,SW,236,0.0,0.0,58,0.00,,---,0.01,VWS V14.01,2013-10-30 22:01:00,
2013-10-30 18:08:00,71.5,56.4,30.09,SW,236,0.0,0.0,59,0.00,,---,0.01,VWS V14.01,2013-10-30 22:08:00,
2013-10-30 18:14:00,71.3,56.2,30.09,SW,236,0.0,0.0,59,0.00,,---,0.01,VWS V14.01,2013-10-30 22:14:00,
2013-10-30 18:20:00,71.1,56.1,30.09,SW,236,0.0,0.0,59,0.00,,---,0.01,VWS V14.01,2013-10-30 22:20:00,
2013-10-30 18:26:00,70.9,55.9,30.09,SW,236,0.0,0.0,59,0.00,,---,0.01,VWS V14.01,2013-10-30 22:26:00,
2013-10-30 18:32:00,70.8,56.7,30.09,SW,236,0.0,0.0,61,0.00,,---,0.01,VWS V14.01,2013-10-30 22:32:00,
2013-10-30 18:38:00,70.4,56.3,30.09,SW,236,0.0,0.0,61,0.00,,---,0.01,VWS V14.01,2013-10-30 22:38:00,
2013-10-30 18:44:00,70.3,56.2,30.09,SW,236,0.0,0.0,61,0.00,,---,0.01,VWS V14.01,2013-10-30 22:44:00,
2013-10-30 18:50:00,70.1,56.0,30.10,SW,236,0.0,0.0,61,0.00,,---,0.01,VWS V14.01,2013-10-30 22:50:00,
2013-10-30 18:56:00,69.9,56.3,30.10,SW,236,0.0,0.0,62,0.00,,---,0.01,VWS V14.01,2013-10-30 22:56:00,
2013-10-30 19:02:00,69.8,56.2,30.10,SW,236,0.0,0.0,62,0.00,,---,0.01,VWS V14.01,2013-10-30 23:02:00,
2013-10-30 19:08:00,69.6,56.0,30.10,SW,236,0.0,0.0,62,0.00,,---,0.01,VWS V14.01,2013-10-30 23:08:00,
2013-10-30 19:14:00,69.4,56.3,30.10,SW,236,0.0,0.0,63,0.00,,---,0.01,VWS V14.01,2013-10-30 23:14:00,
2013-10-30 19:20:00,69.3,56.6,30.11,SW,236,0.0,0.0,64,0.00,,---,0.01,VWS V14.01,2013-10-30 23:20:00,
2013-10-30 19:26:00,69.1,56.4,30.11,SW,236,0.0,0.0,64,0.00,,---,0.01,VWS V14.01,2013-10-30 23:26:00,
2013-10-30 19:32:00,68.9,56.7,30.11,SW,236,0.0,0.0,65,0.00,,---,0.01,VWS V14.01,2013-10-30 23:32:00,
2013-10-30 19:38:00,68.8,57.0,30.11,SW,236,0.0,0.0,66,0.00,,---,0.01,VWS V14.01,2013-10-30 23:38:00,
2013-10-30 19:44:00,68.4,56.6,30.11,SW,236,0.0,0.0,66,0.00,,---,0.01,VWS V14.01,2013-10-30 23:44:00,
2013-10-30 19:50:00,68.3,56.9,30.11,SW,236,0.0,0.0,67,0.00,,---,0.01,VWS V14.01,2013-10-30 23:50:00,
2013-10-30 19:56:00,68.1,56.7,30.11,SW,236,0.0,0.0,67,0.00,,---,0.01,VWS V14.01,2013-10-30 23:56:00,
2013-10-30 20:02:00,67.9,56.5,30.11,SW,236,0.0,0.0,67,0.00,,---,0.01,VWS V14.01,2013-10-31 00:02:00,
2013-10-30 20:08:00,67.8,56.5,30.11,SW,236,0.0,0.0,67,0.00,,---,0.01,VWS V14.01,2013-10-31 00:08:00,
2013-10-30 20:14:00,67.6,56.3,30.11,SW,236,0.0,0.0,67,0.00,,---,0.01,VWS V14.01,2013-10-31 00:14:00,
2013-10-30 20:20:00,67.6,57.1,30.12,SW,236,0.0,0.0,69,0.00,,---,0.01,VWS V14.01,2013-10-31 00:20:00,
2013-10-30 20:26:00,67.3,57.2,30.12,SW,236,0.0,0.0,70,0.00,,---,0.01,VWS V14.01,2013-10-31 00:26:00,
2013-10-30 20:32:00,67.1,57.4,30.12,SW,236,0.0,0.0,71,0.00,,---,0.01,VWS V14.01,2013-10-31 00:32:00,
2013-10-30 20:38:00,66.8,57.1,30.12,SW,236,0.0,0.0,71,0.00,,---,0.01,VWS V14.01,2013-10-31 00:38:00,
2013-10-30 20:44:00,66.6,56.9,30.12,SW,236,0.0,0.0,71,0.00,,---,0.01,VWS V14.01,2013-10-31 00:44:00,
2013-10-30 20:50:00,66.4,56.7,30.12,SW,236,0.0,0.0,71,0.00,,---,0.01,VWS V14.01,2013-10-31 00:50:00,
2013-10-30 20:56:00,66.3,57.4,30.12,SW,236,0.0,0.0,73,0.00,,---,0.01,VWS V14.01,2013-10-31 00:56:00,
2013-10-30 21:02:00,66.1,58.0,30.11,SW,236,0.0,0.0,75,0.00,,---,0.01,VWS V14.01,2013-10-31 01:02:00,
2013-10-30 21:08:00,65.8,57.3,30.11,SW,236,0.0,0.0,74,0.00,,---,0.01,VWS V14.01,2013-10-31 01:08:00,
2013-10-30 21:15:00,65.6,57.1,30.11,SW,236,0.0,0.0,74,0.00,,---,0.01,VWS V14.01,2013-10-31 01:15:00,
2013-10-30 21:21:00,65.5,57.4,30.11,SW,236,0.0,0.0,75,0.00,,---,0.01,VWS V14.01,2013-10-31 01:21:00,
2013-10-30 21:27:00,65.5,57.4,30.11,SW,236,0.0,0.0,75,0.00,,---,0.01,VWS V14.01,2013-10-31 01:27:00,
2013-10-30 21:32:00,65.5,57.4,30.11,SW,236,0.0,0.0,75,0.00,,---,0.01,VWS V14.01,2013-10-31 01:32:00,
2013-10-30 21:39:00,65.5,57.4,30.11,SW,236,0.0,0.0,75,0.00,,---,0.01,VWS V14.01,2013-10-31 01:39:00,
2013-10-30 21:45:00,65.3,57.2,30.11,SW,236,0.0,0.0,75,0.00,,---,0.01,VWS V14.01,2013-10-31 01:45:00,
2013-10-30 21:51:00,65.3,57.2,30.12,SW,236,0.0,0.0,75,0.00,,---,0.01,VWS V14.01,2013-10-31 01:51:00,
2013-10-30 21:57:00,65.3,57.2,30.12,SW,236,0.0,0.0,75,0.00,,---,0.01,VWS V14.01,2013-10-31 01:57:00,
2013-10-30 22:02:00,65.3,57.5,30.12,SW,236,0.0,0.0,76,0.00,,---,0.01,VWS V14.01,2013-10-31 02:02:00,
2013-10-30 22:07:00,65.2,57.5,30.12,SW,236,0.0,0.0,76,0.00,,---,0.01,VWS V14.01,2013-10-31 02:07:00,
2013-10-30 22:13:00,65.0,57.6,30.12,SW,236,0.0,0.0,77,0.00,,---,0.01,VWS V14.01,2013-10-31 02:13:00,
2013-10-30 22:19:00,64.8,57.4,30.11,SW,236,0.0,0.0,77,0.00,,---,0.01,VWS V14.01,2013-10-31 02:19:00,
2013-10-30 22:25:00,64.7,57.7,30.11,SW,236,0.0,0.0,78,0.00,,---,0.01,VWS V14.01,2013-10-31 02:25:00,
2013-10-30 22:31:00,64.5,57.5,30.12,SW,236,0.0,0.0,78,0.00,,---,0.01,VWS V14.01,2013-10-31 02:31:00,
2013-10-30 22:37:00,64.5,57.8,30.12,SW,236,0.0,0.0,79,0.00,,---,0.01,VWS V14.01,2013-10-31 02:37:00,
2013-10-30 22:43:00,64.3,57.7,30.12,SW,236,0.0,0.0,79,0.00,,---,0.01,VWS V14.01,2013-10-31 02:43:00,
2013-10-30 22:49:00,64.2,57.9,30.12,SW,236,0.0,0.0,80,0.00,,---,0.01,VWS V14.01,2013-10-31 02:49:00,
2013-10-30 22:55:00,64.0,58.1,30.12,SW,236,0.0,0.0,81,0.00,,---,0.01,VWS V14.01,2013-10-31 02:55:00,
2013-10-30 23:01:00,63.7,57.8,30.12,SW,236,0.0,0.0,81,0.00,,---,0.01,VWS V14.01,2013-10-31 03:01:00,
2013-10-30 23:07:00,63.7,57.8,30.12,SW,236,0.0,0.0,81,0.00,,---,0.01,VWS V14.01,2013-10-31 03:07:00,
2013-10-30 23:13:00,63.5,57.6,30.12,SW,236,0.0,0.0,81,0.00,,---,0.01,VWS V14.01,2013-10-31 03:13:00,
2013-10-30 23:19:00,63.5,57.6,30.12,SW,236,0.0,0.0,81,0.00,,---,0.01,VWS V14.01,2013-10-31 03:19:00,
2013-10-30 23:25:00,63.4,57.5,30.12,SW,236,0.0,0.0,81,0.00,,---,0.01,VWS V14.01,2013-10-31 03:25:00,
2013-10-30 23:31:00,63.4,57.8,30.12,SW,236,0.0,0.0,82,0.00,,---,0.01,VWS V14.01,2013-10-31 03:31:00,
2013-10-30 23:37:00,63.2,57.6,30.12,SW,236,0.0,0.0,82,0.00,,---,0.01,VWS V14.01,2013-10-31 03:37:00,
2013-10-30 23:43:00,63.2,58.0,30.12,SW,236,0.0,0.0,83,0.00,,---,0.01,VWS V14.01,2013-10-31 03:43:00,
2013-10-30 23:49:00,63.1,57.9,30.11,SW,236,0.0,0.0,83,0.00,,---,0.01,VWS V14.01,2013-10-31 03:49:00,
2013-10-30 23:55:00,63.1,58.2,30.11,SW,236,0.0,0.0,84,0.00,,---,0.01,VWS V14.01,2013-10-31 03:55:00,